Wind_Speed
28 30 30 30 31 32 33 34 34 35 35 36 37 37 35 36 38 38 38 38 38 38 38 39 38 37 37 36 37 38 39 40 40 41 41 42 42 41 41 40 41 41 42 42
29 28 29 30 31 32 33 33 34 35 35 36 36 37 37 37 38 38 39 39 39 39 39 39 39 38 38 37 37 38 39 40 40 41 41 42 43 43 44 44 42 43 43 44
29 28 28 29 31 31 32 32 33 34 34 35 36 36 35 36 37 38 39 39 40 40 39 40 40 40 40 39 39 39 40 40 41 41 41 42 42 43 44 44 44 44 45 45
27 27 28 29 30 30 30 31 32 33 34 33 34 36 33 34 35 36 36 37 38 39 39 39 40 40 39 39 40 40 40 41 41 42 42 43 43 43 43 44 45 46 46 46
26 26 27 27 27 28 29 29 30 31 33 33 33 35 33 33 34 34 34 35 36 37 37 37 38 38 39 39 39 40 40 40 41 42 43 43 43 44 44 46 47 47 48 48
24 25 25 25 25 26 27 28 29 31 32 33 31 33 32 32 32 32 33 34 34 34 35 35 36 37 38 38 39 40 40 40 41 42 43 44 44 45 45 46 47 48 49 49
23 23 23 23 23 24 25 26 28 29 30 30 28 30 31 30 30 30 31 32 32 32 32 33 34 35 36 37 38 39 40 41 41 41 42 43 44 45 46 47 47 49 50 51
22 22 22 22 22 22 23 24 25 26 27 27 26 27 27 27 28 28 29 30 30 31 31 32 33 34 35 36 37 38 40 40 41 41 42 43 44 45 46 47 48 49 50 51
21 21 21 21 22 22 22 22 23 24 25 25 25 25 26 26 26 27 28 28 29 30 31 31 32 33 34 36 37 38 38 39 40 41 42 42 42 43 44 45 47 49 50 50
20 20 20 20 20 21 21 21 21 22 23 23 24 24 25 24 26 26 27 28 29 30 31 31 31 32 33 34 35 35 36 37 38 40 41 42 42 42 43 44 45 46 47 48
19 20 19 20 19 20 20 20 21 22 23 23 23 22 22 24 26 27 27 27 28 29 29 29 31 31 32 33 34 34 35 36 37 38 39 40 41 42 43 43 43 44 45 47
19 19 20 20 20 20 20 21 21 22 22 23 24 24 23 24 25 26 27 27 28 28 29 30 31 32 33 34 34 34 35 36 37 38 38 39 40 41 42 42 42 42 43 44
19 20 20 20 20 20 21 21 21 21 22 22 23 23 23 24 25 25 26 26 27 28 28 30 31 32 33 33 33 34 35 35 36 37 38 38 39 39 40 40 40 40 41 42
20 20 20 20 20 20 20 20 20 21 22 22 22 22 23 24 24 24 25 25 26 27 28 29 30 30 31 32 33 33 34 35 36 36 36 37 37 37 38 38 38 39 39 40
20 20 20 19 20 20 20 19 20 21 22 22 21 23 23 25 25 25 25 25 26 27 28 29 29 30 31 31 32 33 33 34 34 35 34 35 35 35 36 36 37 37 38 39
20 19 19 19 20 20 20 20 21 21 22 22 23 23 24 25 25 26 27 26 27 27 27 28 29 30 30 30 31 31 31 31 32 32 32 32 33 33 33 34 35 36 37 38
19 19 19 20 20 20 19 18 20 20 21 21 22 23 24 24 25 26 26 26 26 27 27 27 27 27 27 27 28 29 29 29 30 30 30 31 31 30 30 31 32 33 34 35
19 19 20 20 20 19 17 18 19 19 19 20 20 21 23 24 24 25 25 25 26 26 26 26 25 25 26 26 27 27 27 27 27 28 29 30 29 29 29 29 30 31 32 33
19 19 20 20 20 19 17 17 18 19 19 19 20 21 22 23 23 23 24 24 25 25 25 24 24 24 25 25 26 26 26 26 26 27 27 27 27 28 28 28 29 30 30 31
20 20 20 20 21 20 18 18 18 19 19 19 20 21 22 22 22 22 23 23 24 24 24 24 24 24 24 24 24 24 24 24 25 26 26 25 26 26 27 28 29 29 29 29
20 21 20 21 21 20 19 19 19 20 20 20 20 21 21 21 22 22 23 22 23 23 23 24 24 24 23 23 23 23 23 23 24 24 23 24 24 25 26 27 28 28 28 28
21 21 21 21 22 20 20 21 20 20 20 21 21 21 21 21 22 22 22 22 22 22 23 23 23 23 23 23 23 23 23 23 23 23 22 22 23 25 25 26 26 26 26 26
22 22 21 20 20 21 21 21 21 21 21 21 22 22 22 22 23 22 22 23 22 22 23 23 24 24 24 24 23 22 22 23 23 23 22 22 23 23 24 24 24 24 23 23
21 21 21 20 20 21 21 21 21 22 21 21 21 22 23 23 23 23 23 23 23 23 23 23 24 24 24 24 23 22 22 22 22 23 23 24 23 22 22 22 22 22 22 21
21 21 21 21 21 21 21 21 21 22 22 22 22 22 23 23 23 23 23 23 24 23 23 24 24 23 23 23 22 21 21 20 21 21 22 22 22 22 21 21 20 19 19 19
21 21 21 20 21 21 21 21 21 22 22 22 22 22 22 23 23 23 23 23 23 22 22 22 22 22 22 21 20 19 19 19 19 19 19 20 20 19 19 19 18 17 17 16
Wind_Direction
265 263 263 263 264 263 263 263 263 262 262 263 262 262 260 259 259 259 260 260 260 260 260 260 259 259 260 260 259 257 257 257 258 257 258 258 258 259 258 258 257 257 258 259
267 266 265 265 265 265 264 263 263 263 263 264 264 262 261 261 261 261 260 260 261 260 260 260 259 260 261 262 261 259 258 258 259 259 259 259 260 260 259 258 258 258 259 260
270 268 267 267 266 266 264 263 263 263 262 263 265 264 263 262 262 262 262 261 260 261 261 261 261 260 262 262 262 261 260 259 260 260 259 260 261 260 260 259 259 259 261 262
271 269 268 268 267 266 265 265 264 264 264 264 265 267 264 263 263 263 262 262 262 262 262 262 261 261 261 262 262 262 262 261 261 261 261 261 262 262 261 261 260 261 262 263
273 273 270 268 268 267 266 266 266 265 265 265 266 268 267 266 266 265 263 263 263 263 263 262 261 261 261 262 262 262 262 262 262 262 262 262 262 263 262 262 262 262 263 263
276 274 272 270 270 270 268 268 267 267 266 265 266 268 269 268 268 267 266 264 264 264 263 262 261 261 261 261 262 262 263 263 263 263 263 263 263 264 263 263 263 263 264 265
277 275 273 271 271 271 270 270 270 269 267 266 267 268 269 270 269 269 268 266 265 265 264 264 263 264 263 262 262 262 263 264 264 264 264 265 265 265 264 264 264 265 264 265
279 277 277 274 273 273 272 272 271 271 270 269 268 269 269 270 270 271 271 269 267 266 265 266 266 265 265 265 264 264 264 264 264 265 266 266 266 266 266 266 266 266 266 266
282 280 279 276 275 276 274 272 273 272 271 269 266 268 270 270 271 272 272 271 270 268 267 267 267 268 268 266 267 267 266 266 266 267 267 267 267 268 268 268 267 267 267 267
282 283 282 280 277 277 276 275 273 271 272 273 269 270 271 270 271 273 275 275 273 270 270 270 270 271 270 269 269 268 267 266 267 268 269 269 268 268 268 269 269 269 268 267
284 285 282 278 276 277 275 274 273 272 273 273 271 270 271 274 275 277 277 277 276 274 275 274 273 272 272 273 271 269 269 269 269 270 270 270 270 269 269 269 269 269 269 269
284 284 282 279 277 277 276 273 273 272 272 271 270 271 273 276 277 278 279 279 279 278 277 276 276 275 274 274 273 271 270 271 271 271 271 271 271 270 270 269 270 271 271 271
284 285 284 280 278 279 278 274 273 273 272 271 271 272 275 278 279 280 281 281 281 281 281 281 281 278 276 274 273 272 272 273 273 273 272 273 272 271 271 271 271 272 273 272
285 286 283 282 281 281 278 276 275 273 273 273 273 275 276 280 282 284 284 284 283 283 284 285 284 281 279 277 275 274 273 274 275 275 274 274 274 273 272 272 271 272 273 274
285 286 284 281 280 280 279 276 275 274 273 274 276 278 279 281 283 285 287 287 287 287 286 286 285 284 281 278 278 278 277 277 277 276 276 276 276 274 273 273 272 272 274 274
284 283 283 282 280 279 279 278 275 275 275 276 279 280 282 284 285 286 287 287 289 289 289 288 286 285 283 280 280 281 280 279 278 277 276 276 276 276 274 274 273 273 274 275
285 285 285 285 282 281 281 280 278 278 279 280 281 284 284 286 288 289 289 287 289 290 290 289 288 287 285 283 283 282 283 282 281 280 278 278 279 277 275 275 276 276 277 277
286 287 287 286 283 282 285 282 281 280 279 282 285 286 288 289 290 290 290 290 291 292 291 289 288 288 287 287 287 285 285 285 285 284 281 279 279 278 276 277 278 279 279 279
283 286 286 284 282 283 284 282 280 279 279 281 285 288 291 291 292 291 292 292 292 292 291 289 289 289 289 289 288 287 286 287 287 287 284 282 281 280 278 278 280 281 282 280
281 284 284 283 282 282 284 282 281 281 281 283 287 290 294 294 294 293 292 292 291 291 290 290 291 292 292 292 290 288 287 287 288 287 285 283 282 281 281 281 283 284 283 281
280 282 282 282 282 283 283 281 281 282 285 286 288 291 293 295 297 297 295 294 292 293 292 291 291 292 292 293 292 291 289 290 290 290 286 284 284 284 283 284 284 285 285 283
281 283 283 283 283 285 283 282 282 282 284 287 288 290 293 295 296 297 297 296 296 294 294 293 293 293 293 292 292 291 289 290 291 290 288 287 285 285 284 285 285 287 286 284
280 282 283 283 285 285 284 283 282 282 285 287 288 289 291 293 295 297 298 298 297 296 296 295 295 294 293 294 293 292 292 291 292 291 289 290 290 289 288 286 287 288 288 285
279 280 280 282 284 284 282 282 282 284 286 287 288 290 291 292 295 296 297 298 297 296 298 298 297 295 295 296 295 294 294 294 293 293 291 290 289 289 290 290 289 289 289 286
277 276 279 281 281 282 280 280 282 284 285 286 288 291 291 292 293 294 295 297 297 298 298 299 298 298 298 297 297 296 296 297 297 296 296 293 290 289 289 289 289 289 290 290
277 278 281 283 282 283 282 280 281 283 284 285 287 289 291 293 294 294 295 297 297 298 299 301 299 299 299 298 298 298 300 302 302 301 300 298 296 293 291 289 287 286 287 288
Height
5670 5672 5672 5672 5672 5673 5674 5674 5675 5676 5677 5677 5678 5681 5683 5684 5685 5686 5688 5689 5691 5693 5694 5695 5696 5698 5698 5699 5700 5702 5703 5704 5706 5707 5709 5710 5712 5713 5714 5715 5717 5718 5719 5720
5663 5664 5664 5664 5664 5665 5665 5666 5667 5668 5668 5668 5669 5672 5674 5675 5675 5677 5678 5680 5681 5683 5685 5686 5687 5688 5689 5690 5691 5692 5693 5695 5696 5697 5699 5700 5702 5703 5704 5705 5707 5708 5709 5710
5656 5657 5656 5657 5657 5657 5658 5658 5659 5659 5660 5660 5661 5663 5666 5666 5666 5667 5668 5670 5671 5673 5675 5676 5677 5678 5680 5681 5682 5682 5683 5685 5686 5687 5689 5690 5691 5692 5694 5695 5696 5698 5698 5699
5649 5649 5649 5649 5649 5649 5650 5651 5651 5651 5651 5653 5653 5653 5657 5657 5657 5658 5659 5660 5661 5663 5664 5665 5666 5668 5670 5671 5671 5672 5673 5674 5676 5677 5678 5680 5681 5682 5683 5684 5686 5687 5687 5688
5643 5643 5643 5642 5643 5642 5643 5643 5644 5643 5643 5644 5645 5644 5648 5648 5648 5650 5650 5651 5652 5653 5654 5655 5656 5658 5659 5660 5661 5662 5663 5664 5665 5666 5667 5669 5670 5671 5672 5673 5674 5675 5676 5676
5637 5636 5636 5636 5636 5636 5636 5636 5636 5636 5635 5637 5639 5637 5638 5639 5640 5641 5642 5642 5643 5644 5644 5645 5646 5648 5649 5650 5651 5652 5653 5654 5654 5655 5656 5657 5658 5659 5660 5661 5662 5663 5663 5664
5631 5631 5630 5630 5630 5630 5630 5630 5630 5629 5628 5629 5631 5630 5632 5632 5633 5633 5633 5634 5634 5635 5635 5636 5637 5638 5639 5640 5641 5642 5642 5643 5644 5644 5645 5645 5646 5647 5648 5649 5649 5650 5651 5652
5625 5625 5625 5624 5624 5624 5623 5623 5623 5623 5622 5623 5624 5624 5626 5626 5625 5625 5626 5626 5626 5627 5627 5628 5629 5629 5629 5630 5631 5631 5632 5633 5633 5633 5634 5634 5634 5635 5635 5636 5637 5637 5638 5638
5619 5620 5619 5618 5618 5618 5617 5617 5617 5617 5616 5616 5617 5619 5619 5619 5619 5619 5618 5619 5619 5619 5619 5619 5620 5620 5620 5620 5621 5621 5621 5622 5622 5622 5623 5623 5623 5623 5623 5623 5623 5624 5624 5625
5614 5614 5614 5613 5612 5612 5612 5612 5612 5611 5610 5610 5612 5613 5613 5613 5613 5612 5612 5611 5611 5611 5611 5611 5611 5611 5611 5611 5611 5611 5611 5611 5611 5611 5611 5611 5611 5611 5611 5611 5611 5611 5611 5611
5609 5609 5609 5608 5608 5607 5607 5607 5606 5605 5605 5606 5606 5609 5608 5607 5606 5606 5605 5604 5603 5603 5603 5603 5602 5602 5602 5601 5601 5600 5600 5601 5601 5600 5600 5600 5599 5599 5599 5599 5598 5598 5598 5597
5604 5603 5603 5603 5603 5602 5602 5602 5601 5601 5601 5600 5600 5605 5602 5601 5599 5599 5598 5597 5596 5595 5595 5594 5594 5593 5592 5592 5591 5590 5590 5590 5590 5590 5589 5589 5588 5588 5587 5586 5586 5586 5585 5585
5599 5599 5598 5598 5599 5598 5597 5596 5596 5595 5595 5595 5595 5599 5596 5594 5593 5592 5591 5590 5589 5588 5587 5586 5585 5583 5582 5582 5581 5580 5580 5580 5579 5579 5578 5578 5577 5576 5576 5575 5574 5574 5573 5572
5594 5593 5594 5594 5592 5591 5591 5591 5590 5590 5590 5590 5590 5591 5590 5588 5587 5586 5585 5583 5582 5580 5579 5577 5576 5574 5573 5572 5571 5570 5570 5569 5569 5568 5567 5566 5566 5565 5565 5564 5563 5562 5561 5560
5589 5589 5588 5587 5587 5586 5586 5586 5585 5585 5584 5584 5585 5584 5584 5582 5581 5580 5578 5576 5575 5573 5571 5569 5567 5565 5564 5562 5561 5560 5560 5559 5558 5557 5556 5556 5555 5554 5553 5553 5552 5551 5550 5549
5584 5584 5583 5583 5582 5581 5581 5581 5580 5579 5579 5579 5579 5579 5578 5576 5574 5573 5571 5570 5568 5566 5564 5561 5559 5557 5555 5553 5552 5551 5550 5549 5548 5547 5547 5546 5544 5543 5543 5542 5541 5540 5539 5538
5579 5579 5578 5578 5577 5576 5577 5576 5575 5575 5574 5574 5573 5573 5571 5570 5568 5567 5565 5563 5561 5558 5556 5553 5551 5549 5546 5545 5544 5542 5541 5540 5539 5538 5537 5537 5535 5534 5533 5532 5531 5530 5529 5528
5575 5574 5573 5572 5572 5572 5574 5571 5570 5569 5569 5568 5567 5567 5565 5564 5562 5560 5558 5556 5553 5551 5549 5546 5544 5542 5540 5538 5536 5535 5534 5532 5531 5530 5529 5527 5526 5525 5524 5523 5522 5521 5520 5518
5570 5569 5568 5567 5566 5566 5568 5566 5565 5564 5565 5564 5562 5561 5559 5558 5556 5554 5552 5549 5547 5544 5542 5540 5538 5536 5534 5532 5530 5528 5527 5525 5524 5522 5520 5519 5518 5516 5516 5515 5514 5512 5511 5509
5565 5564 5564 5562 5561 5561 5564 5561 5559 5560 5560 5559 5557 5555 5554 5552 5551 5550 5546 5543 5541 5538 5536 5534 5532 5530 5528 5525 5523 5521 5519 5518 5516 5515 5513 5511 5510 5509 5508 5507 5506 5504 5502 5500
5560 5559 5559 5557 5556 5556 5558 5556 5555 5556 5555 5553 5551 5549 5548 5546 5545 5543 5540 5537 5535 5532 5530 5528 5526 5524 5522 5520 5517 5515 5514 5512 5510 5508 5506 5504 5503 5501 5500 5499 5498 5496 5494 5492
5555 5554 5554 5552 5552 5554 5551 5550 5550 5549 5548 5546 5545 5544 5542 5541 5539 5536 5534 5531 5529 5527 5524 5522 5520 5518 5516 5514 5512 5510 5508 5506 5504 5502 5500 5498 5496 5495 5493 5492 5490 5488 5487 5485
5550 5550 5548 5549 5550 5547 5545 5544 5543 5543 5542 5541 5539 5538 5536 5535 5533 5531 5529 5526 5524 5521 5519 5517 5514 5512 5510 5508 5506 5504 5502 5500 5498 5496 5494 5492 5490 5488 5486 5485 5483 5482 5480 5478
5545 5544 5543 5543 5543 5541 5540 5538 5538 5537 5536 5535 5533 5532 5531 5529 5527 5525 5523 5521 5518 5516 5513 5511 5508 5506 5504 5502 5500 5498 5496 5494 5492 5490 5488 5486 5484 5482 5480 5478 5476 5475 5474 5472
5540 5538 5537 5537 5537 5535 5534 5533 5532 5531 5530 5529 5528 5526 5524 5522 5521 5519 5517 5515 5513 5510 5508 5505 5503 5501 5499 5496 5494 5492 5490 5488 5486 5484 5482 5480 5477 5475 5474 5472 5470 5469 5468 5466
5534 5532 5532 5531 5531 5529 5529 5527 5526 5525 5524 5523 5522 5520 5518 5516 5515 5513 5511 5509 5507 5505 5502 5500 5497 5495 5493 5491 5489 5487 5485 5483 5481 5479 5477 5474 5472 5470 5468 5466 5465 5463 5462 5461